Location: Yecla
(38.6122°N, 1.1101°W)
Time: 04:14:28
(UTC+01:00)

ISS - Visible Passes

Search period start: 25 March 2019 00:00
Search period end: 04 April 2019 01:00
Orbit: 408 x 411 km, 51.6° (Epoch: 25 March)

Date Brightness Start Highest point End Pass type
(mag) Time Alt. Az. Time Alt. Az. Time Alt. Az.
25 Mar -1.6 20:14:38 10° W 20:17:23 24° NNW 20:20:10 10° NNE visible
26 Mar -0.8 21:02:51 10° NW 21:03:58 11° NNW 21:05:06 10° N visible
27 Mar -1.0 20:11:08 10° NW 20:13:04 14° NNW 20:14:59 10° NNE visible
29 Mar -0.8 20:08:22 10° NNW 20:08:48 10° N 20:09:14 10° N visible
31 Mar -0.9 22:40:33 10° NNW 22:41:21 12° N 22:41:21 12° N visible
01 Apr -1.1 21:50:23 10° N 21:51:24 11° NNE 21:52:23 10° NNE visible
02 Apr -1.4 22:35:11 10° NNW 22:36:44 19° N 22:36:44 19° N visible
03 Apr -1.6 21:44:48 10° NNW 21:46:59 16° NNE 21:48:04 14° NE visible
03 Apr -0.3 23:20:39 10° NW 23:20:50 11° NW 23:20:50 11° NW visible
